Location: Aslane?ti
(46.3000°N, 22.7500°E)
Time: 05:30:04
(UTC+00:00)

Daily predictions for brighter satellites

Satellite Brightness Start Highest point End
(mag) Time Altitude Azimuth Time Altitude Azimuth Time Altitude Azimuth
ARGOS Delta rocket 4.1 00:00:46 10° NNE 00:06:18 86° ESE 00:09:23 27° S
Resurs 1-4 Rocket 2.2 00:01:09 10° NNE 00:06:29 72° ESE 00:09:34 26° S
Cosmos 841 Rocket 4.2 00:06:13 23° WSW 00:09:02 44° WNW 00:13:58 10° N
NOSS 2-2 (C) 3.1 00:08:26 36° WSW 00:09:40 67° NW 00:13:24 10° NE
NOSS 5 (C) 4.2 00:08:08 10° NW 00:11:14 79° SW 00:13:51 18° SSE
ADEOS II 3.1 00:07:10 10° NNE 00:12:05 38° E 00:15:59 15° SSE
ADEOS Rocket 3.8 00:05:39 10° SE 00:12:37 58° ENE 00:18:54 10° N
Cosmos 1606 3.5 00:13:02 10° NNW 00:16:33 36° W 00:17:30 30° SW
USA 215 4.5 00:11:45 10° NE 00:17:46 41° NNW 00:23:47 10° W
Cosmos 1151 Rocket 4.1 00:14:01 10° N 00:18:04 40° ENE 00:22:05 10° SSE
USA 290 3.1 00:18:17 30° WSW 00:19:14 37° WNW 00:22:16 10° N
IDEFIX/ARIANE 42P 4.3 00:16:42 10° NE 00:21:01 26° E 00:25:18 10° SSE
MOZ.5/SAFIR/RUBIN 5/SL-8 4.4 00:20:12 27° SSW 00:22:10 41° W 00:26:42 10° NNW
Cosmos 1782 3.6 00:18:31 10° N 00:22:26 50° ENE 00:25:50 13° SSE
Cosmos 1242 Rocket 4.1 00:24:02 10° NW 00:26:52 21° W 00:27:23 21° WSW
DELTA 2 R/B (1) 4.0 00:28:14 13° WSW 00:32:47 40° S 00:37:56 10° ESE
Cosmos 921 Rocket 4.4 00:31:04 17° WSW 00:33:18 27° WNW 00:36:54 10° N
CZ-2D R/B 2.2 00:30:01 10° N 00:35:11 69° WNW 00:38:34 22° SSW
NPP 3.6 00:29:47 10° NNE 00:35:12 83° WNW 00:38:53 21° SSW
Cosmos 2151 3.2 00:34:04 26° SW 00:36:10 53° WNW 00:40:18 10° N
Cosmos 1766 Rocket 3.9 00:37:08 18° S 00:40:24 63° E 00:44:51 10° NNE
Landsat 4 4.1 00:39:12 10° NNE 00:42:55 56° E 00:45:29 19° S
AQUA 3.8 00:39:13 10° NNE 00:44:00 82° WNW 00:47:16 20° SSW
USA 307 3.9 00:41:18 10° W 00:45:24 45° NNW 00:49:30 10° NE
CENTAUR R/B 3.8 00:39:30 10° NW 00:47:25 61° NE 00:56:11 10° SE
Cosmos 2292 Rocket 2.6 00:46:55 30° SSW 00:48:10 64° W 00:51:14 10° N
X-37B 2.1 00:49:39 20° S 00:49:39 20° S 00:51:12 10° SSE
FALCON 9 DEB 2.9 00:45:49 10° WNW 00:48:53 52° SW 00:51:55 10° SE
DELTA 2 DEB (DPAF) 4.4 00:44:30 10° SSE 00:48:55 70° ENE 00:53:21 10° N
OE (NEXTSAT) 4.2 00:46:06 10° W 00:49:32 68° SSW 00:52:57 10° ESE
USA 267 4.4 00:51:01 18° SW 00:52:47 20° WSW 00:57:21 10° WNW
SL-16 R/B 2.9 00:48:37 17° SSW 00:53:10 46° W 00:59:06 10° NNW
Cosmos 2298 Rocket 4.5 00:49:41 10° NNW 00:54:43 43° WSW 00:58:47 15° S
USA 238 DEB 4.4 00:50:16 10° NW 00:57:28 66° NE 01:04:59 10° SE
USA 238 4.4 00:50:23 10° NW 00:57:35 65° NE 01:05:07 10° SE
SL-19 R/B 4.3 00:54:19 10° N 00:59:36 70° WNW 01:03:59 16° SSW
Cosmos 1933 4.2 00:56:07 10° NNW 00:59:51 34° W 01:02:08 19° SW
FALCON 9 DEB 3.6 00:58:01 10° WNW 01:00:45 29° SW 01:03:28 10° SSE
Okean 3 Rocket 3.5 00:57:46 17° SSW 01:01:05 82° W 01:05:29 10° N
USA 308 4.1 00:57:37 10° W 01:01:38 39° NNW 01:05:39 10° NE
ASTEX 1 3.7 00:58:40 10° SSE 01:03:34 68° E 01:08:26 10° N
Cosmos 1125 Rocket 3.8 00:59:06 10° NNW 01:04:08 47° WSW 01:09:04 10° S
Cosmos 1656 3.8 00:58:25 10° NNW 01:04:10 82° ENE 01:09:51 10° SSE
IRIDIUM 104 4.4 00:59:09 10° N 01:04:18 61° W 01:08:49 13° SSW
Helios 1B rocket 3.2 01:00:45 10° N 01:04:35 39° WNW 01:07:17 17° SW
Cosmos 2084 Rocket 3.9 01:02:35 17° S 01:05:19 44° ESE 01:09:08 10° NE
CZ-4C R/B 2.2 01:03:33 17° SSW 01:07:19 68° ESE 01:13:07 10° NE
SL-4 R/B 1.6 01:04:29 10° WNW 01:08:09 89° NNE 01:11:37 10° ESE
Meteor 1-29 3.1 01:05:20 10° N 01:08:42 58° WNW 01:11:00 18° SSW
Cosmos 44 4.4 01:05:54 12° S 01:10:29 42° ESE 01:15:36 10° NE
FALCON 9 DEB 3.6 01:09:01 10° WNW 01:11:49 30° SW 01:14:35 10° SSE
FALCON 9 DEB 3.9 01:09:28 10° W 01:12:06 25° SW 01:14:42 10° SSE
Meteor 2-3 Rocket 4.2 01:07:54 16° SW 01:12:08 45° WNW 01:17:30 10° N
ARIANE 5 R/B 3.7 01:10:06 10° NNE 01:14:46 38° E 01:19:25 10° SSE
COSMOS 2406 4.0 01:11:17 10° S 01:16:41 48° ESE 01:22:07 10° NE
USA 305 4.4 01:13:57 10° W 01:17:51 34° NNW 01:21:45 10° NE
Lacrosse 5 rocket 0.9 01:15:48 10° NW 01:19:24 68° SW 01:23:04 10° SE
Cosmos 1862 3.3 01:17:12 11° S 01:21:00 89° ESE 01:25:06 10° N
Cosmos 1655 Rocket 4.0 01:15:26 11° SSW 01:21:29 77° W 01:27:47 10° N
Cosmos 1812 2.8 01:23:53 10° NNW 01:27:41 59° W 01:31:26 10° S
CZ-2C R/B 4.4 01:24:12 10° NE 01:28:14 25° E 01:32:09 10° SSE
Tianhe-1 2.4 01:26:37 15° SSW 01:28:27 24° SSE 01:31:05 10° ESE
Cosmos 1697 Rocket 3.1 01:22:53 10° NNW 01:28:34 68° ENE 01:34:11 10° SE
USA 281 3.2 01:25:12 10° SSE 01:31:47 85° WSW 01:38:25 10° NNW
ERBS 3.5 01:30:36 10° W 01:33:35 33° NNW 01:36:34 10° NE
ATLAS 5 CENTAUR R/B 3.7 01:34:42 10° WNW 01:37:47 19° NNW 01:41:10 10° NNE
Cosmos 1271 Rocket 3.7 01:36:08 10° NNW 01:39:23 28° W 01:42:38 10° SSW
CZ-3B R/B 1.3 01:35:08 10° NW 01:39:27 86° NNE 01:41:42 10° ESE
Cosmos 1328 Rocket 4.3 01:37:15 10° NNW 01:41:12 34° W 01:45:10 10° SSW
Cosmos 2315 Rocket 4.0 01:35:24 10° N 01:41:37 81° W 01:47:49 10° S
Cosmos 1500 Rocket 3.6 01:39:13 10° S 01:43:32 80° E 01:47:52 10° N
IRS-P3 4.2 01:39:39 10° NNE 01:45:01 87° ESE 01:50:21 10° SSW
Resurs 1-4 Rocket 3.9 01:42:05 10° NNW 01:45:45 19° WNW 01:49:24 10° WSW
Cosmos 1743 Rocket 3.6 01:44:38 10° S 01:49:02 89° ENE 01:53:30 10° N
ADEOS II 3.1 01:47:02 10° N 01:51:40 32° WNW 01:56:17 10° SW
ADEOS Rocket 4.2 01:52:17 10° SSW 01:58:21 29° W 02:03:59 10° NW
Cosmos 1833 Rocket 2.8 01:52:56 10° SSW 01:58:36 80° WNW 02:04:17 10° NNE
Cosmos 1980 Rocket 2.8 01:54:09 10° NNW 01:59:44 64° ENE 02:05:17 10° SE
IDEFIX/ARIANE 42P 3.1 01:55:49 10° N 02:00:49 46° WNW 02:05:46 10° SW
